﻿Дата;Google;UBN;AdRiver
2014-02-03;1;0;0
2013-11-05;3;0;0
2013-11-03;5;0;0
2013-10-30;2;0;0
2013-10-28;5;0;0
2013-10-24;2;0;0
2013-02-06;1;0;0
2012-12-07;29;0;0
2012-12-06;26;0;0
2012-12-05;54;0;0
2012-12-04;46;0;0
2012-12-03;41;0;0
2012-12-02;5;0;0
2012-12-01;12;0;0
2012-11-30;46;0;0
2012-11-29;25;0;0
2012-11-28;43;0;0
2012-11-27;36;0;0
2012-11-26;22;0;0
2012-11-20;14;0;0
2012-11-19;26;0;0
2012-11-18;16;0;0
2012-11-17;8;0;0
2012-11-16;5;0;0
2012-11-15;18;0;0
2012-11-14;14;0;0
2012-11-13;18;0;0
2012-11-12;4;0;0
2012-11-11;12;0;0
2012-11-10;18;0;0
2012-11-09;16;0;0
2012-11-08;18;0;0
2012-10-20;1;0;0
2012-10-16;1;0;0
2012-10-15;1;0;0
2012-10-14;1;0;0
2012-10-12;1;0;0
2012-10-11;1;0;0
2012-10-10;1;0;0
2012-03-10;1;0;0
2011-11-17;8;0;1
2011-11-16;12;0;0
2011-11-15;9;0;0
2011-11-14;15;0;0
2011-11-13;10;0;0
2011-11-12;11;0;0
2011-11-11;11;0;0
2011-11-10;15;0;0
2011-11-09;12;0;0
2011-11-08;17;0;0
2011-11-06;4;0;0
2011-11-05;2;0;0
2011-11-04;7;0;0
2011-11-03;10;0;0
2011-11-02;9;0;0
2011-11-01;10;0;0
2011-10-31;2;0;0
2011-10-30;2;0;0
2011-10-29;2;0;0
2011-10-28;5;0;0
2011-10-27;2;0;0
2011-10-26;4;0;0
2011-10-25;5;0;0
2011-10-24;2;0;0
2011-10-21;2;0;0
2011-10-20;1;0;0
2011-10-16;8;0;0
2011-10-15;4;0;0
2011-10-07;0;1;0
2011-10-05;0;1;0
2011-07-17;1;0;0
2011-07-12;2;0;0
2011-07-11;1;0;0
2011-07-09;1;1;0
2011-07-07;1;0;0
2011-07-03;1;0;0
2011-07-01;1;0;0
2011-06-29;1;0;0
2011-06-24;4;0;0
2011-06-13;12;1;0
2011-06-12;1;0;0
2011-06-10;3;0;0
2011-06-09;15;0;0
2011-06-08;6;0;0
2011-06-07;3;0;0
2011-06-06;2;0;0
2011-06-05;2;0;0
2011-06-04;4;0;0
2011-06-03;5;0;0
2011-06-02;7;0;0
2011-06-01;2;0;0
2011-05-31;8;0;0
2011-05-30;7;0;0
2011-05-28;2;0;0
2011-05-27;2;0;0
2011-05-26;8;0;0
2011-05-25;6;0;0
2011-05-24;4;0;0
2011-05-23;3;0;0
2011-05-21;2;0;0
2011-05-20;2;0;0
2011-05-18;2;0;0
2011-05-17;4;0;0
2011-05-16;1;0;0
2011-05-15;4;0;0
2011-05-14;3;0;0
2011-05-13;4;0;0
2011-05-12;7;0;0
2011-05-11;6;0;0
2011-05-10;3;0;0
2011-05-08;1;0;0
2011-05-07;2;0;0
2011-05-06;3;0;0
2011-05-05;0;1;0
2011-05-04;0;1;0
2011-05-03;0;2;0
2011-05-02;0;1;0
2011-04-21;1;0;0
2011-04-19;0;1;0
2011-04-18;1;1;0
2011-04-17;3;0;0
2011-04-16;2;0;0
2011-04-15;1;0;0
2011-04-13;1;1;0
2011-04-12;1;1;0
2011-04-11;1;0;0
2011-04-10;3;0;0
2011-04-08;2;0;0
2011-04-07;1;0;0
2011-04-06;2;0;0
2011-04-05;1;0;0
2011-04-04;1;0;0
2011-04-03;2;0;0
2011-04-02;1;0;0
2011-04-01;1;0;0
2011-03-31;2;0;0
2011-03-30;1;1;0
2011-03-13;0;1;0
2011-03-12;2;0;0
2011-03-11;6;0;0
2011-03-10;3;0;0
2011-03-09;4;0;0
2011-03-08;4;2;0
2011-03-07;10;0;0
2011-03-06;6;0;0
2011-03-05;3;0;0
2011-03-04;6;0;0
2011-03-03;9;0;0
2011-03-01;0;1;0
2011-02-27;3;0;0
2011-02-26;7;0;0
2011-02-25;8;1;0
2011-02-24;8;0;0
2011-02-23;5;0;0
2011-02-22;5;2;0
2011-02-21;7;0;0
2011-02-20;6;0;0
2011-02-19;9;0;0
2011-02-18;6;0;0
2011-02-17;7;0;0
2011-02-16;13;0;0
2011-02-15;38;0;0
2011-02-14;12;0;0
2011-02-13;20;0;0
2011-02-12;20;0;0
2011-02-11;20;0;0
2011-02-10;21;0;0
2011-02-09;27;2;0
2011-02-08;25;0;0
2011-02-07;22;1;0
2011-02-06;24;0;0
2011-02-05;24;0;0
2011-02-04;29;0;0
2011-02-03;28;0;0
2011-02-02;24;0;0
2011-02-01;22;1;0
2011-01-31;33;0;0
2011-01-30;29;0;0
2011-01-29;27;0;0
2011-01-28;23;1;0
2011-01-27;16;0;0
2011-01-26;18;0;0
2011-01-25;18;0;0
2011-01-24;11;0;0
2011-01-23;14;0;0
2011-01-22;26;0;0
2011-01-21;27;0;0
2011-01-20;18;0;0
2011-01-19;25;0;0
2011-01-18;31;1;0
2011-01-17;31;0;0
2011-01-16;37;0;0
2011-01-15;32;0;0
2011-01-14;35;0;0
2011-01-13;31;0;0
2011-01-12;20;0;0
2011-01-11;16;0;0
2011-01-10;18;0;0
2011-01-06;7;0;0
2011-01-05;15;0;0
2011-01-04;20;0;0
2011-01-03;19;0;0
2011-01-02;25;0;0
2011-01-01;26;0;0
2010-12-31;52;0;0
2010-12-30;1;0;0
2010-12-28;19;0;0
2010-12-27;48;0;0
2010-12-26;32;0;0
2010-12-25;25;0;0
2010-12-24;30;0;0
2010-12-23;25;1;0
2010-12-22;19;0;0
2010-12-21;1;0;0
2010-12-17;16;0;0
2010-12-16;1;0;0
2010-12-15;13;0;0
2010-12-14;23;0;0
2010-12-13;26;1;0
2010-12-12;25;0;0
2010-12-11;21;0;0
2010-12-10;12;0;0
2010-12-09;22;0;0
2010-12-08;20;0;0
2010-12-07;23;0;0
2010-12-06;21;1;0
2010-12-05;1;0;0
2010-12-04;1;0;0
2010-12-03;16;0;0
2010-12-02;13;0;0
2010-12-01;24;1;0
2010-11-30;19;0;0
2010-11-29;19;0;0
2010-11-28;4;0;0
2010-11-27;7;0;0
2010-11-26;3;0;0
2010-11-25;8;0;0
2010-11-24;6;0;0
2010-11-23;13;0;0
2010-11-22;7;0;0
2010-11-21;6;0;0
2010-11-20;9;0;0
2010-11-19;4;0;0
2010-11-18;9;0;0
2010-11-17;4;0;0
2010-11-16;12;1;0
2010-11-15;11;0;0
2010-11-14;8;0;0
2010-11-13;2;0;0
2010-11-12;1;1;0
2010-11-11;4;0;0
2010-11-10;7;0;0
2010-11-09;9;0;0
2010-11-08;15;0;0
2010-11-07;16;0;0
2010-11-06;8;0;0
2010-11-05;5;0;0
2010-11-04;2;0;0
2010-11-03;9;0;0
2010-11-02;5;0;0
2010-11-01;7;0;0
2010-10-31;6;0;0
2010-10-30;4;0;0
2010-10-29;3;0;0
2010-10-27;3;1;0
2010-10-26;1;1;0
2010-10-24;4;0;0
2010-10-23;5;0;0
2010-10-22;2;0;0
2010-10-21;1;0;0
2010-10-20;3;0;0
2010-10-19;2;0;0
2010-10-18;1;0;0
2010-10-17;2;0;0
2010-10-16;4;0;0
2010-10-15;5;0;0
2010-10-14;3;0;0
2010-10-13;2;0;0
2010-10-12;6;0;0
2010-10-10;2;0;0
2010-10-09;1;0;0
2010-10-08;1;0;0
2010-10-07;3;0;0
2010-10-06;1;0;0
2010-09-29;1;0;0
2010-09-28;2;0;0
2010-09-27;2;0;0
2010-09-21;4;0;0
2010-09-20;14;3;0
2010-09-19;32;0;0
2010-09-18;21;0;0
2010-09-17;38;1;0
2010-09-16;5;0;0
2010-09-15;42;1;0
2010-09-14;52;0;0
2010-09-13;64;1;0
2010-09-12;39;0;0
2010-09-11;17;0;0
2010-09-10;21;0;0
2010-09-09;39;0;0
2010-09-08;23;0;0
2010-09-07;25;0;0
2010-09-06;23;1;0
2010-09-05;28;0;0
2010-09-04;31;0;0
2010-09-03;16;0;0
2010-09-02;23;0;0
2010-09-01;16;0;0
2010-08-31;16;0;0
2010-08-30;26;0;0
2010-08-29;14;0;0
2010-08-28;11;0;0
2010-08-27;29;0;0
2010-08-26;19;0;0
2010-08-25;25;1;0
2010-08-24;12;0;0
2010-08-23;10;0;0
2010-08-22;12;0;0
2010-08-21;18;0;0
2010-08-20;20;1;0
2010-08-19;30;0;0
2010-08-18;30;0;0
2010-08-17;21;0;0
2010-08-16;28;0;0
2010-08-15;16;0;0
2010-08-14;16;0;0
2010-08-13;32;0;0
2010-08-12;30;0;0
2010-08-11;26;0;0
2010-08-10;21;1;0
2010-08-09;10;0;0
2010-07-30;0;1;0
2010-07-23;13;0;0
2010-07-22;11;0;0
2010-07-21;10;1;0
2010-07-20;21;0;0
2010-07-19;9;0;0
2010-07-17;9;0;0
2010-07-16;33;0;0
2010-07-15;21;0;0
2010-07-14;17;0;0
2010-07-13;21;0;0
2010-07-12;17;0;0
2010-07-11;11;0;0
2010-07-10;12;0;0
2010-07-09;17;0;0
2010-07-08;21;0;0
2010-07-07;31;0;0
2010-07-06;21;0;0
2010-07-05;30;0;0
2010-07-04;20;0;0
2010-07-03;12;0;0
2010-07-02;16;1;0
2010-07-01;24;0;0
2010-06-30;17;0;0
2010-06-29;19;0;0
2010-06-24;5;0;0
2010-06-23;27;0;0
2010-06-22;41;0;0
2010-06-21;36;0;0
2010-06-20;26;0;0
2010-06-19;12;0;0
2010-06-18;21;0;0
2010-06-17;18;0;0
2010-06-16;12;0;0
2010-06-15;12;0;0
2010-06-14;20;0;0
2010-06-13;8;0;0
2010-06-12;7;0;0
2010-06-11;20;0;0
2010-06-10;29;0;0
2010-06-09;30;0;0
2010-06-08;28;0;0
2010-06-07;34;0;0
2010-06-06;19;0;0
2010-06-05;16;0;0
2010-06-04;34;0;0
2010-06-03;24;0;0
2010-06-02;20;0;0
2010-06-01;20;0;0
2010-05-31;29;0;0
2010-05-30;25;0;0
2010-05-29;26;0;0
2010-05-28;49;0;0
2010-05-27;39;0;0
2010-05-26;40;0;0
2010-05-25;42;0;0
2010-05-24;34;0;0
2010-05-23;25;0;0
2010-05-22;19;0;0
2010-05-21;23;0;0
2010-05-20;34;0;0
2010-05-19;28;0;0
2010-05-18;24;0;0
2010-05-17;72;0;0
2010-05-16;80;0;0
2010-05-15;49;0;0
2010-05-14;44;0;0
2010-05-13;53;0;0
2010-05-12;47;0;0
2010-05-11;34;0;0
2010-05-10;29;0;0
2010-05-09;26;0;0
2010-05-08;24;0;0
2010-05-07;53;0;0
2010-05-06;31;0;0
2010-05-05;33;0;0
2010-05-04;13;0;0
2010-05-03;1;0;0
2010-05-02;21;0;0
2010-05-01;12;0;0
2010-04-30;19;0;0
2010-04-29;24;0;0
2010-04-28;22;0;0
2010-04-27;14;0;0
2010-04-26;15;0;0
2010-04-25;16;0;0
2010-04-24;20;0;0
2010-04-23;15;0;0
2010-04-22;23;0;0
2010-04-21;24;0;0
2010-04-20;32;0;0
2010-04-19;21;0;0
2010-04-18;21;0;0
2010-04-17;31;0;0
2010-04-16;24;0;0
2010-04-15;26;0;0
2010-04-14;34;0;0
2010-04-13;31;0;0
2010-04-12;37;0;0
2010-04-11;25;0;0
2010-04-10;25;0;0
2010-04-09;21;0;0
2010-04-08;18;0;0
2010-04-07;37;0;0
2010-04-06;34;0;0
2010-04-05;20;0;0
2010-04-04;27;0;0
2010-04-03;17;0;0
2010-04-02;15;0;0
2010-04-01;15;0;0
2010-03-31;13;0;0
2010-03-30;26;0;0
2010-03-29;21;0;0
2010-03-28;11;0;0
2010-03-27;9;0;0
2010-03-26;11;0;0
2010-03-25;28;0;0
2010-03-24;9;0;0
2010-03-23;10;0;0
2010-03-22;15;0;0
2010-03-21;17;0;0
2010-03-20;12;0;0
2010-03-19;22;0;0
2010-03-18;19;0;0
2010-03-17;14;0;0
2010-03-16;11;0;0
2010-03-15;21;0;0
2010-03-14;16;0;0
2010-03-13;17;0;0
2010-03-12;13;0;0
2010-03-11;14;0;0
2010-03-10;13;0;0
2010-03-09;1;0;0
2010-03-08;20;0;0
2010-03-07;9;0;0
2010-03-06;13;0;0
2010-03-05;35;0;0
2010-03-04;37;0;0
2010-03-03;31;0;0
2010-03-02;26;0;0
2010-03-01;46;0;0
2010-02-28;25;0;0
2010-02-27;12;0;0
2010-02-26;24;0;0
2010-02-25;18;0;0
2010-02-24;26;0;0
2010-02-23;40;0;0
2010-02-22;39;0;0
2010-02-21;26;0;0
2010-02-20;23;0;0
2010-02-19;30;0;0
2010-02-18;71;0;0
2010-02-17;42;0;0
2010-02-16;45;0;0
2010-02-15;31;0;0
2010-02-14;32;0;0
2010-02-13;27;0;0
2010-02-12;27;0;0
2010-02-11;37;0;0
2010-02-10;20;0;0
2010-02-09;25;0;0
2010-02-08;38;0;0
2010-02-07;21;0;0
2010-02-06;23;0;0
2010-02-05;52;0;0
2010-02-04;51;0;0
2010-02-03;53;0;0
2010-02-02;31;0;0
2010-02-01;15;0;0
2010-01-31;7;0;0
2010-01-30;15;0;0
2010-01-29;6;0;0
2010-01-28;15;0;0
2010-01-27;17;0;0
2010-01-26;22;0;0
2010-01-25;21;0;0
2010-01-24;11;0;0
2010-01-23;9;0;0
2010-01-22;19;0;0
2010-01-21;15;0;0
2010-01-20;13;0;0
2010-01-19;13;0;0
2010-01-18;12;0;0
2010-01-17;7;0;0
2010-01-16;6;0;0
2010-01-15;7;0;0
2010-01-14;11;0;0
2010-01-13;9;0;0
2010-01-12;12;0;0
2010-01-11;21;0;0
2010-01-10;9;0;0
2010-01-09;8;0;0
2010-01-08;4;0;0
2010-01-07;1;0;0
2010-01-06;13;0;0
2010-01-05;7;0;0
2010-01-04;14;0;0
2010-01-03;7;0;0
2010-01-02;6;0;0
2010-01-01;13;0;0
2009-12-31;26;0;0
2009-12-30;26;0;0
2009-12-29;30;0;0
2009-12-28;32;0;0
2009-12-27;20;0;0
2009-12-26;12;0;0
2009-12-25;37;0;0
2009-12-24;10;0;0
2009-12-23;27;0;0
2009-12-22;47;0;0
2009-12-21;24;0;0
2009-12-20;17;0;0
2009-12-19;12;0;0
2009-12-18;20;0;0
2009-12-17;32;0;0
2009-12-16;37;0;0
2009-12-15;40;0;0
2009-12-14;26;0;0
2009-12-13;20;0;0
2009-12-12;9;0;0
2009-12-11;15;0;0
2009-12-10;18;0;0
2009-12-09;25;0;0
2009-12-08;45;0;0
2009-12-07;25;0;0
2009-12-06;21;0;0
2009-12-05;14;0;0
2009-12-04;29;0;0
2009-12-03;17;0;0
2009-12-02;12;0;0
2009-12-01;19;0;0
2009-11-30;19;0;0
2009-11-29;7;0;0
2009-11-28;5;0;0
2009-11-27;12;0;0
2009-11-26;6;0;0
2009-11-25;10;0;0
2009-11-24;13;0;0
2009-11-23;10;0;0
2009-11-22;11;0;0
2009-11-21;6;0;0
2009-11-20;11;0;0
2009-11-19;18;0;0
2009-11-18;33;0;0
2009-11-17;42;0;0
2009-11-16;33;0;0
2009-11-15;17;0;0
2009-11-14;18;0;0
2009-11-13;13;0;0
2009-11-12;55;0;0
2009-11-11;39;0;0
2009-11-10;14;0;0
2009-11-09;17;0;0
2009-11-08;8;0;0
2009-11-07;7;0;0
2009-11-06;80;0;0
2009-11-05;55;0;0
2009-11-04;25;0;0
2009-11-03;12;0;0
2009-11-02;19;0;0
2009-11-01;30;0;0
2009-10-31;46;0;0
2009-10-30;43;0;0
2009-10-29;24;0;0
2009-10-28;31;0;0
2009-10-27;25;0;0
2009-10-26;22;0;0
2009-10-25;12;0;0
2009-10-24;10;0;0
2009-10-23;4;0;0
2009-10-22;0;1;0
